Location: Boda
(47.1872°N, 9.5454°E)
Time: 09:21:21
(UTC+00:00)

Lacrosse 4 Rocket - Pass Details

Date: 14 May 2021
Orbit: 541 x 616 km, 68.0° (Epoch: 16 June)

Event Time Altitude Azimuth Distance (km) Brightness Sun altitude
Exits shadow 01:37:30 30° 187° (S) 1,100 2.3 -17.1°
Maximum altitude 01:39:31 61° 118° (ESE) 696 1.8 -16.9°
Drops below altitude 10° 01:43:52 10° 38° (NE) 1,959 5.5 -16.5°
Sets 01:46:07 0° 35° (NE) 2,856 6.8 -16.2°
